Regional Weather Roundup
Issued by NWS Charleston, SC

Current Version | Previous Version | Text Only | Print | Product List | Glossary Off
Versions: 1 2 3 4 5 6 7 8 9 10 11 12 13 14 15 16 17 18 19 20 21 22 23 24 25 26 27 28 29 30 31 32 33 34 35 36 37 38 39 40 41 42 43 44 45 46 47 48 49 50

000
ASUS42 KCHS 182027
RWRCHS

REGIONAL WEATHER ROUNDUP
NATIONAL WEATHER SERVICE CHARLESTON SC
400 PM EDT WED OCT 18 2017

NOTE: "FAIR" INDICATES FEW OR NO CLOUDS BELOW 12,000 FEET WITH NO
SIGNIFICANT WEATHER AND/OR OBSTRUCTIONS TO VISIBILITY.

NOT ALL STATIONS ARE QUALITY CONTROLLED. USE DATA WITH CAUTION...
ESPECIALLY DEWPOINT OBSERVATIONS.

SCZ027-030-031-034>040-042>050-182100-
...SOUTHEAST SOUTH CAROLINA...

CITY           SKY/WX    TMP DP  RH WIND       PRES   REMARKS
N CHARLESTON   MOSUNNY   75  58  55 NE7       30.24F
WATERFRONT PRK   N/A     73  60  63 NE7G14    30.08F
JOHNS ISLAND   FAIR      73  63  68 E13G20    30.24R
PINOPOLIS        N/A     70  57  64 N7        30.18F
MONCKS CORNER  FAIR      72  54  53 N7        30.25S
SUMMERVILLE    FAIR      72  55  56 N6        30.26S
BEAUFORT MCAS  SUNNY     77  59  53 NE12      30.23F
BEAUFORT ARPT  FAIR      73  59  60 NE8       30.22F
HILTON HEAD IS SUNNY     73  61  64 E8G15       N/A
WALTERBORO     CLEAR     72  54  53 NE7       30.25F
ALLENDALE      NOT AVBL

...SOUTHERN MIDLANDS AND PEE DEE...

CITY           SKY/WX    TMP DP  RH WIND       PRES   REMARKS
GEORGETOWN     FAIR      73  55  53 NE10      30.26S
KINGSTREE      FAIR      72  46  40 NE3       30.27S
ORANGEBURG     SUNNY     71  39  31 E7        30.27F
BARNWELL         N/A     73  43  33 E9        30.26S
AIKEN          FAIR      70  34  26 N5        30.30F
MANNING        HAZE      72  54  53 MISG      30.27S VSB 1/4
COLUMBIA       SUNNY     72  39  30 E7        30.28F
SUMTER         SUNNY     72  37  27 NE7       30.26F
FLORENCE       SUNNY     71  44  37 NE8       30.29F
MYRTLE BEACH   SUNNY     75  57  53 N12       30.27F
N MYRTLE BEACH SUNNY     74  55  51 N7        30.25

$$

GAZ063-065-086>088-099>101-113>116-118-119-134>141-150-182100-
...SOUTHEAST GEORGIA...

CITY           SKY/WX    TMP DP  RH WIND       PRES   REMARKS
SAVANNAH ARPT  MOSUNNY   77  57  50 E13       30.22F
HUNTER AAF     SUNNY     75  60  57 NE9       30.19F
FORT STEWART   SUNNY     76  57  50 E6        30.19F
STATESBORO     SUNNY     76  48  37 NE7       30.23F
SYLVANIA       CLEAR     76  56  50 E6        30.24F
CLAXTON        FAIR      77  56  48 NE9       30.22F

...CSRA...CENTRAL AND FAR SOUTHEAST GEORGIA...

CITY           SKY/WX    TMP DP  RH WIND       PRES   REMARKS
THOMSON        SUNNY     71  39  31 E9        30.31F
AUGUSTA-BUSH   SUNNY     75  35  23 E8        30.26F
AUGUSTA-DANIEL SUNNY     75  36  24 VRB6      30.27F
SWAINSBORO     FAIR      73  41  31 E8        30.25S
VIDALIA        SUNNY     77  50  38 E9        30.23S
EASTMAN        FAIR      77   8   7 NE8       30.25S
HAZLEHURST     FAIR      77  35  21 E7        30.20S
ALMA           SUNNY     78  57  48 VRB5      30.20S
WAYCROSS       SUNNY     79  54  41 E7        30.18F
JESUP          NOT AVBL
BAXLEY         FAIR      75  54  46 NE8       30.20S
BRUNSWICK      PTSUNNY   73  61  64 NE16G22   30.21S
SAINT SIMONS   CLOUDY    73  65  75 N17G25    30.19F

$$

SCZ027-028-034-036>038-045-046-048>050-GAZ119-141-182100-
...LAKE AND SUPPLEMENTAL COASTAL OBSERVATIONS...

STATION/POSITION TIME  TEMP    WIND        PRES    WAVE   SWELL
                       AIR SEA DIR/SP/G            HT/PER HT/PER/DIR
                 (UTC) (F)     (DEG/KT/KT) (MB)    (FT/S) (FT/S/D)
WINYAH BAY       1945   71      40/ 11     1024.0F
LAKE MURRAY      2020   70      50/  3/  6 1024.4
ACE BASIN NERRS  1945   76      30/  4     1024.0S
FORT PULASKI     2000   71 76   80/ 14/ 17 1023.7
SAPELO ISLAND    2000   71      30/ 14     1023.0

$$

ANZ835-935-AMZ111-154-330-350-352-354-370-450-454-472-182100-
...C-MAN AND BUOY OBSERVATIONS...

STATION/POSITION TIME  TEMP    WIND        PRES    WAVE   SWELL
                       AIR SEA DIR/SP/G            HT/PER HT/PER/DIR
                 (UTC) (F)     (DEG/KT/KT) (MB)    (FT/S) (FT/S/D)
BUOY 41004       2010   73 80   40/ 21/ 27 1022.5
BUOY 41008       1950   72 78   40/ 19/ 23 1022.2F   6/ 6   3/110/10
FOLLY BEACH CMAN 2000   69      60/ 17/ 19 1024.6S
CAPERS NEARSHORE 2008   67 74   60/ 16/ 21 1023.6F
FRIPP NEARSHORE  2008   72      60/ 17/ 21   N/A


STATION/POSITION TIME  TEMP    WIND        PRES    WAVE   SWELL
                       AIR SEA DIR/SP/G            HT/PER HT/PER/DIR
                 (UTC) (F)     (DEG/KT/KT) (MB)    (FT/S) (FT/S/D)
5E ST. MARYS GA  2000      78                N/A     7/ 6   2/ 90/11
FRYING PAN BUOY  2010   71 77   40/ 21/ 27 1023.2
BUOY 41025       1950   72 82   30/ 19/ 25 1024.2F   7/ 6   3/140/10
CAPE LOOKOUT NC  2000   68      20/ 19/ 23 1024.9F
BUOY 41002       1950   75 80   50/ 23/ 29 1019.4R  10/ 8   3/ 90/11
BUOY 41010       NOT AVBL
ST AUGUSTINE FL  2000   76 79   30/ 22/ 24 1020.5F


$$




USA.gov is the U.S. government's official web portal to all federal, state and local government web resources and services.